LINK4XN LLBG-LTAI

Flight info

Callsign LINK4XN
Flight time 1h 8m
Altitude 51000
Route DAFNA DCT VELOX N71 DESPO DCT VESAR UN135 TUKTU DCT ALNYA
Aircraft C750/M-SBDE3FGHRWXY/S

Departure

Time 2026-05-06 14:26
Airport Ben Gurion International Airport (LLBG)

Arrival

Time 2026-05-06 15:34
Airport Antalya International Airport (LTAI)
Time Latitude Longitude Altitude Speed Heading
2026-05-06 14:16 32.00133 34.88405 116 ft 0 kts 32°
2026-05-06 14:19 32.00116 34.88394 114 ft 4 kts 22°
2026-05-06 14:19 32.00092 34.88388 116 ft 4 kts 345°
2026-05-06 14:19 32.00077 34.88398 113 ft 1 kts 301°
2026-05-06 14:20 32.00075 34.88402 113 ft 0 kts 301°
2026-05-06 14:21 32.00094 34.88366 115 ft 6 kts 301°
2026-05-06 14:22 32.00120 34.88321 116 ft 9 kts 309°
2026-05-06 14:22 32.00211 34.88347 116 ft 18 kts 29°
2026-05-06 14:22 32.00286 34.88276 115 ft 14 kts 300°
2026-05-06 14:22 32.00352 34.88151 116 ft 22 kts 301°
2026-05-06 14:23 32.00429 34.88001 116 ft 21 kts 301°
2026-05-06 14:23 32.00520 34.87876 116 ft 16 kts 355°
2026-05-06 14:23 32.00606 34.87932 115 ft 14 kts 31°
2026-05-06 14:23 32.00714 34.88009 114 ft 22 kts 31°
2026-05-06 14:24 32.00840 34.88100 116 ft 21 kts 32°
2026-05-06 14:24 32.00986 34.88210 116 ft 32 kts 32°
2026-05-06 14:24 32.01172 34.88339 117 ft 30 kts 30°
2026-05-06 14:24 32.01329 34.88481 117 ft 28 kts 49°
2026-05-06 14:25 32.01444 34.88656 116 ft 26 kts 57°
2026-05-06 14:25 32.01501 34.88877 116 ft 37 kts 80°
2026-05-06 14:25 32.01562 34.89147 116 ft 23 kts 37°
2026-05-06 14:25 32.01699 34.89131 114 ft 19 kts 348°
2026-05-06 14:26 32.01747 34.89072 113 ft 12 kts 249°
2026-05-06 14:26 32.01673 34.88621 116 ft 111 kts 260°
2026-05-06 14:26 32.01507 34.87533 425 ft 145 kts 264°
2026-05-06 14:26 32.01241 34.86263 870 ft 173 kts 258°
2026-05-06 14:27 32.00943 34.84831 1460 ft 191 kts 261°
2026-05-06 14:27 32.00641 34.83182 1955 ft 223 kts 260°
2026-05-06 14:27 32.00313 34.81407 3148 ft 207 kts 258°
2026-05-06 14:27 31.99980 34.79764 3973 ft 209 kts 257°
2026-05-06 14:28 31.99632 34.78042 4053 ft 217 kts 256°
2026-05-06 14:28 31.99273 34.76234 4048 ft 232 kts 257°
2026-05-06 14:28 31.99312 34.74237 3996 ft 250 kts 285°
2026-05-06 14:28 31.99956 34.72243 4602 ft 260 kts 292°
2026-05-06 14:29 32.00584 34.70330 6035 ft 248 kts 290°
2026-05-06 14:29 32.01176 34.68390 6962 ft 255 kts 289°
2026-05-06 14:29 32.01777 34.66425 7931 ft 258 kts 289°
2026-05-06 14:29 32.02396 34.64441 9057 ft 258 kts 289°
2026-05-06 14:30 32.02749 34.62329 9783 ft 272 kts 275°
2026-05-06 14:30 32.02848 34.59996 10072 ft 298 kts 273°
2026-05-06 14:30 32.02919 34.58296 10177 ft 316 kts 273°
2026-05-06 14:30 32.03065 34.55619 10524 ft 332 kts 274°
2026-05-06 14:31 32.03223 34.52949 11399 ft 331 kts 274°
2026-05-06 14:31 32.03606 34.50236 12040 ft 337 kts 288°
2026-05-06 14:31 32.04799 34.47885 12812 ft 342 kts 307°
2026-05-06 14:31 32.06690 34.46138 13557 ft 353 kts 328°
2026-05-06 14:32 32.09092 34.45336 14229 ft 368 kts 350°
2026-05-06 14:32 32.11678 34.45484 14926 ft 375 kts
2026-05-06 14:32 32.14283 34.45859 15616 ft 379 kts
2026-05-06 14:32 32.16920 34.46262 16294 ft 383 kts
2026-05-06 14:33 32.19586 34.46605 17019 ft 386 kts
2026-05-06 14:33 32.22237 34.46926 17732 ft 390 kts
2026-05-06 14:33 32.25876 34.47409 18666 ft 395 kts 360°
2026-05-06 14:33 32.27694 34.47458 19042 ft 393 kts 351°
2026-05-06 14:34 32.30388 34.47034 19802 ft 388 kts 341°
2026-05-06 14:34 32.32948 34.46083 20598 ft 383 kts 331°
2026-05-06 14:34 32.35305 34.44642 21346 ft 380 kts 322°
2026-05-06 14:34 32.37403 34.42763 22119 ft 377 kts 313°
2026-05-06 14:35 32.39277 34.40592 22889 ft 379 kts 309°
2026-05-06 14:35 32.41165 34.38391 23664 ft 383 kts 310°
2026-05-06 14:35 32.43054 34.36204 24290 ft 386 kts 310°
2026-05-06 14:35 32.44979 34.33956 25037 ft 393 kts 314°
2026-05-06 14:36 32.46982 34.31606 25020 ft 416 kts 315°
2026-05-06 14:36 32.49087 34.29143 25175 ft 432 kts 315°
2026-05-06 14:36 32.51255 34.26658 25848 ft 433 kts 317°
2026-05-06 14:36 32.53734 34.24610 26382 ft 438 kts 330°
2026-05-06 14:37 32.56501 34.23177 26975 ft 442 kts 341°
2026-05-06 14:37 32.59524 34.22407 27542 ft 446 kts 353°
2026-05-06 14:37 32.62630 34.22053 28099 ft 450 kts 354°
2026-05-06 14:37 32.65765 34.21706 28660 ft 454 kts 354°
2026-05-06 14:38 32.68926 34.21343 29190 ft 458 kts 354°
2026-05-06 14:38 32.72109 34.20975 29711 ft 461 kts 354°
2026-05-06 14:38 32.75279 34.20615 30212 ft 465 kts 354°
2026-05-06 14:38 32.78512 34.20249 30704 ft 469 kts 354°
2026-05-06 14:39 32.81773 34.19877 31185 ft 472 kts 354°
2026-05-06 14:39 32.85031 34.19502 31651 ft 476 kts 354°
2026-05-06 14:39 32.88345 34.19123 32135 ft 478 kts 354°
2026-05-06 14:39 32.91687 34.18742 32331 ft 490 kts 354°
2026-05-06 14:40 32.95146 34.18345 32303 ft 509 kts 353°
2026-05-06 14:40 32.98748 34.17925 32311 ft 528 kts 355°
2026-05-06 14:40 33.02363 34.17519 33272 ft 507 kts 354°
2026-05-06 14:40 33.05775 34.17131 34797 ft 477 kts 354°
2026-05-06 14:41 33.08943 34.16763 36419 ft 448 kts 354°
2026-05-06 14:41 33.11995 34.16409 37400 ft 441 kts 354°
2026-05-06 14:41 33.15092 34.16054 37637 ft 449 kts 354°
2026-05-06 14:41 33.18216 34.15697 38092 ft 452 kts 354°
2026-05-06 14:42 33.21363 34.15333 38495 ft 456 kts 354°
2026-05-06 14:42 33.24534 34.14967 38891 ft 459 kts 354°
2026-05-06 14:42 33.27729 34.14598 39277 ft 463 kts 354°
2026-05-06 14:42 33.30951 34.14227 39660 ft 467 kts 354°
2026-05-06 14:43 33.34201 34.13851 40034 ft 470 kts 354°
2026-05-06 14:43 33.37471 34.13473 40400 ft 474 kts 354°
2026-05-06 14:43 33.40766 34.13092 40747 ft 477 kts 354°
2026-05-06 14:43 33.44090 34.12706 41104 ft 481 kts 354°
2026-05-06 14:44 33.47433 34.12319 41449 ft 484 kts 354°
2026-05-06 14:44 33.50799 34.11929 41774 ft 488 kts 354°
2026-05-06 14:44 33.54183 34.11536 42088 ft 491 kts 354°
2026-05-06 14:45 33.61030 34.10740 42650 ft 497 kts 354°
2026-05-06 14:45 33.64460 34.10341 43049 ft 494 kts 354°
2026-05-06 14:45 33.67752 34.09958 44387 ft 465 kts 354°
2026-05-06 14:45 33.70876 34.09593 45771 ft 437 kts 354°
2026-05-06 14:46 33.73809 34.09251 47004 ft 410 kts 354°
2026-05-06 14:46 33.76565 34.08930 48089 ft 385 kts 354°
2026-05-06 14:46 33.79151 34.08629 49014 ft 364 kts 355°
2026-05-06 14:46 33.81685 34.08608 49218 ft 365 kts
2026-05-06 14:47 33.84176 34.09222 49400 ft 366 kts 18°
2026-05-06 14:47 33.86260 34.10211 51085 ft 362 kts 24°
2026-05-06 14:47 33.88569 34.11518 50968 ft 370 kts 25°
2026-05-06 14:48 33.93354 34.13853 51019 ft 378 kts 19°
2026-05-06 14:48 33.98334 34.16131 51003 ft 388 kts 22°
2026-05-06 14:49 34.03420 34.18568 51017 ft 397 kts 21°
2026-05-06 14:49 34.08612 34.20990 51008 ft 407 kts 21°
2026-05-06 14:50 34.13946 34.23523 51014 ft 416 kts 21°
2026-05-06 14:50 34.19405 34.26095 51006 ft 426 kts 21°
2026-05-06 14:51 34.24985 34.28741 51018 ft 435 kts 21°
2026-05-06 14:51 34.30639 34.31419 51021 ft 444 kts 21°
2026-05-06 14:52 34.36440 34.34174 51016 ft 452 kts 21°
2026-05-06 14:52 34.42403 34.36859 50981 ft 461 kts 14°
2026-05-06 14:53 34.48814 34.37632 51002 ft 468 kts 355°
2026-05-06 14:53 34.55193 34.36052 50870 ft 480 kts 344°
2026-05-06 14:54 34.61712 34.33796 50863 ft 489 kts 351°
2026-05-06 14:54 34.65069 34.33077 51002 ft 489 kts 354°
2026-05-06 14:54 34.68454 34.32455 51003 ft 495 kts 353°
2026-05-06 14:55 34.75219 34.30672 50978 ft 495 kts 348°
2026-05-06 14:55 34.82014 34.29042 50865 ft 507 kts 353°
2026-05-06 14:55 34.85574 34.28211 50069 ft 537 kts 351°
2026-05-06 14:56 34.89302 34.27243 49280 ft 566 kts 347°
2026-05-06 14:56 34.93256 34.26209 48501 ft 593 kts 347°
2026-05-06 14:56 34.97398 34.25204 47694 ft 619 kts 348°
2026-05-06 14:56 35.01718 34.24179 46902 ft 643 kts 347°
2026-05-06 14:57 35.04557 34.23456 50943 ft 644 kts 345°
2026-05-06 14:57 35.08613 34.22324 50135 ft 674 kts 347°
2026-05-06 14:57 35.13097 34.21244 50550 ft 653 kts 350°
2026-05-06 14:57 35.17531 34.20246 51055 ft 641 kts 350°
2026-05-06 14:58 35.21915 34.19192 51116 ft 642 kts 349°
2026-05-06 14:58 35.30713 34.16889 51007 ft 650 kts 349°
2026-05-06 14:59 35.39555 34.14757 50995 ft 653 kts 349°
2026-05-06 14:59 35.48480 34.12461 51005 ft 657 kts 349°
2026-05-06 15:00 35.57459 34.10243 50996 ft 659 kts 349°
2026-05-06 15:00 35.66453 34.07955 50994 ft 661 kts 349°
2026-05-06 15:01 35.75467 34.05618 50987 ft 662 kts 346°
2026-05-06 15:01 35.83967 34.01603 51005 ft 656 kts 332°
2026-05-06 15:02 35.91489 33.95263 50996 ft 655 kts 316°
2026-05-06 15:02 35.97559 33.87006 51001 ft 643 kts 298°
2026-05-06 15:03 36.01807 33.77373 50964 ft 644 kts 292°
2026-05-06 15:03 36.04261 33.66710 51015 ft 647 kts 281°
2026-05-06 15:04 36.06350 33.55852 50988 ft 651 kts 289°
2026-05-06 15:04 36.10073 33.45732 51011 ft 649 kts 303°
2026-05-06 15:05 36.14672 33.36121 51008 ft 650 kts 300°
2026-05-06 15:05 36.16833 33.31222 50699 ft 644 kts 295°
2026-05-06 15:05 36.18823 33.26287 50019 ft 638 kts 295°
2026-05-06 15:05 36.20850 33.21409 49359 ft 633 kts 299°
2026-05-06 15:06 36.23004 33.16678 48812 ft 626 kts 299°
2026-05-06 15:06 36.25099 33.12066 48299 ft 618 kts 296°
2026-05-06 15:06 36.27082 33.07376 47770 ft 607 kts 294°
2026-05-06 15:06 36.29026 33.02687 46061 ft 621 kts 294°
2026-05-06 15:07 36.31105 32.97913 44847 ft 629 kts 297°
2026-05-06 15:07 36.33218 32.93185 43476 ft 629 kts 297°
2026-05-06 15:07 36.35287 32.88376 41748 ft 643 kts 295°
2026-05-06 15:07 36.37318 32.83502 41006 ft 630 kts 295°
2026-05-06 15:08 36.39364 32.78709 39177 ft 632 kts 294°
2026-05-06 15:08 36.41489 32.73872 37677 ft 633 kts 294°
2026-05-06 15:08 36.43552 32.69137 36900 ft 612 kts 292°
2026-05-06 15:08 36.45498 32.64514 36010 ft 596 kts 292°
2026-05-06 15:09 36.47408 32.59954 34564 ft 595 kts 292°
2026-05-06 15:09 36.49345 32.55439 33545 ft 586 kts 293°
2026-05-06 15:09 36.51252 32.51042 32676 ft 571 kts 292°
2026-05-06 15:09 36.53088 32.46733 31552 ft 558 kts 290°
2026-05-06 15:10 36.54865 32.42483 29025 ft 566 kts 289°
2026-05-06 15:10 36.56716 32.38058 26653 ft 576 kts 291°
2026-05-06 15:10 36.58607 32.33642 25415 ft 591 kts 293°
2026-05-06 15:10 36.60586 32.29003 25002 ft 614 kts 294°
2026-05-06 15:11 36.62557 32.24345 25000 ft 591 kts 290°
2026-05-06 15:11 36.64427 32.19931 24849 ft 567 kts 292°
2026-05-06 15:11 36.66222 32.15657 23363 ft 552 kts 290°
2026-05-06 15:11 36.67968 32.11409 20980 ft 557 kts 289°
2026-05-06 15:12 36.69723 32.07296 18949 ft 501 kts 290°
2026-05-06 15:12 36.71359 32.03569 16716 ft 469 kts 288°
2026-05-06 15:12 36.72795 32.00121 14516 ft 423 kts 287°
2026-05-06 15:12 36.74090 31.96856 13002 ft 413 kts 287°
2026-05-06 15:13 36.75414 31.93585 12865 ft 436 kts 288°
2026-05-06 15:13 36.76883 31.90128 12937 ft 466 kts 290°
2026-05-06 15:13 36.78443 31.86465 12937 ft 487 kts 294°
2026-05-06 15:13 36.80033 31.82684 12955 ft 512 kts 291°
2026-05-06 15:14 36.81677 31.78674 12950 ft 522 kts 291°
2026-05-06 15:14 36.83332 31.74687 12922 ft 502 kts 289°
2026-05-06 15:14 36.84963 31.70809 13013 ft 507 kts 289°
2026-05-06 15:14 36.86556 31.66995 12936 ft 492 kts 288°
2026-05-06 15:15 36.88125 31.63163 12919 ft 501 kts 288°
2026-05-06 15:15 36.89730 31.59231 12946 ft 514 kts 293°
2026-05-06 15:15 36.91398 31.55245 12943 ft 535 kts 297°
2026-05-06 15:15 36.93145 31.51081 12924 ft 529 kts 292°
2026-05-06 15:16 36.94816 31.46985 12928 ft 529 kts 292°
2026-05-06 15:16 36.96481 31.42875 12931 ft 529 kts 293°
2026-05-06 15:16 36.98181 31.38746 12933 ft 530 kts 294°
2026-05-06 15:16 36.99887 31.34659 12919 ft 523 kts 294°
2026-05-06 15:17 37.01497 31.30782 12919 ft 483 kts 294°
2026-05-06 15:17 37.02945 31.27213 12922 ft 448 kts 292°
2026-05-06 15:17 37.04295 31.23860 12907 ft 417 kts 295°
2026-05-06 15:17 37.05596 31.20668 12917 ft 405 kts 290°
2026-05-06 15:18 37.06875 31.17591 12923 ft 403 kts 295°
2026-05-06 15:18 37.08156 31.14455 12936 ft 404 kts 295°
2026-05-06 15:18 37.09431 31.11305 12930 ft 405 kts 294°
2026-05-06 15:18 37.10706 31.08170 12950 ft 400 kts 290°
2026-05-06 15:19 37.11942 31.05146 12924 ft 389 kts 288°
2026-05-06 15:19 37.13251 31.02258 12959 ft 365 kts 307°
2026-05-06 15:19 37.14960 31.00137 13005 ft 325 kts 322°
2026-05-06 15:19 37.16800 30.98772 12847 ft 294 kts 334°
2026-05-06 15:20 37.18762 30.98005 11633 ft 304 kts 349°
2026-05-06 15:20 37.20844 30.97854 11017 ft 294 kts
2026-05-06 15:20 37.22787 30.98132 11007 ft 280 kts
2026-05-06 15:20 37.24743 30.98391 11007 ft 281 kts
2026-05-06 15:21 37.26699 30.98646 11010 ft 286 kts
2026-05-06 15:21 37.28797 30.98943 11016 ft 321 kts
2026-05-06 15:21 37.31126 30.99281 11022 ft 353 kts
2026-05-06 15:21 37.33556 30.99629 11015 ft 358 kts
2026-05-06 15:22 37.35985 30.99971 11016 ft 338 kts
2026-05-06 15:22 37.38376 31.00308 11018 ft 351 kts
2026-05-06 15:22 37.40811 31.00438 10965 ft 340 kts 353°
2026-05-06 15:22 37.42869 30.99423 10943 ft 304 kts 324°
2026-05-06 15:23 37.44058 30.97462 10919 ft 275 kts 293°
2026-05-06 15:23 37.44175 30.95183 10924 ft 256 kts 263°
2026-05-06 15:23 37.43541 30.93100 10991 ft 262 kts 242°
2026-05-06 15:23 37.42241 30.91504 11004 ft 268 kts 216°
2026-05-06 15:24 37.41111 30.90868 10921 ft 266 kts 202°
2026-05-06 15:24 37.39350 30.90223 10257 ft 266 kts 198°
2026-05-06 15:24 37.37006 30.89303 9577 ft 263 kts 201°
2026-05-06 15:24 37.35844 30.88788 9220 ft 261 kts 202°
2026-05-06 15:25 37.34132 30.88030 8701 ft 260 kts 201°
2026-05-06 15:25 37.32423 30.87303 8215 ft 258 kts 200°
2026-05-06 15:25 37.30782 30.86507 7673 ft 254 kts 211°
2026-05-06 15:25 37.29452 30.85142 7502 ft 237 kts 224°
2026-05-06 15:26 37.28261 30.83822 7262 ft 224 kts 223°
2026-05-06 15:26 37.26877 30.82891 6659 ft 237 kts 192°
2026-05-06 15:26 37.25233 30.82849 6357 ft 232 kts 179°
2026-05-06 15:26 37.23620 30.82897 6019 ft 230 kts 181°
2026-05-06 15:27 37.22054 30.82900 5700 ft 227 kts 181°
2026-05-06 15:27 37.20467 30.82895 5366 ft 226 kts 180°
2026-05-06 15:27 37.18923 30.82900 5144 ft 219 kts 180°
2026-05-06 15:27 37.17404 30.82907 4807 ft 218 kts 180°
2026-05-06 15:28 37.15933 30.82822 4356 ft 202 kts 186°
2026-05-06 15:28 37.14473 30.82608 3534 ft 207 kts 185°
2026-05-06 15:28 37.13142 30.82437 3387 ft 183 kts 184°
2026-05-06 15:28 37.11953 30.82277 3377 ft 155 kts 185°
2026-05-06 15:29 37.10964 30.82137 3383 ft 140 kts 184°
2026-05-06 15:29 37.10017 30.82007 3376 ft 140 kts 184°
2026-05-06 15:29 37.09056 30.81875 3397 ft 141 kts 184°
2026-05-06 15:29 37.08096 30.81742 3396 ft 138 kts 183°
2026-05-06 15:30 37.07119 30.81608 3242 ft 140 kts 184°
2026-05-06 15:30 37.06149 30.81475 3060 ft 142 kts 184°
2026-05-06 15:30 37.05164 30.81341 2861 ft 143 kts 185°
2026-05-06 15:30 37.04182 30.81205 2680 ft 143 kts 185°
2026-05-06 15:31 37.03196 30.81069 2494 ft 141 kts 185°
2026-05-06 15:31 37.02223 30.80935 2307 ft 141 kts 186°
2026-05-06 15:31 37.01261 30.80802 2125 ft 139 kts 186°
2026-05-06 15:32 36.99364 30.80573 1816 ft 140 kts 184°
2026-05-06 15:32 36.98384 30.80460 1671 ft 140 kts 185°
2026-05-06 15:32 36.97400 30.80329 1426 ft 147 kts 184°
2026-05-06 15:32 36.96411 30.80197 1186 ft 138 kts 185°
2026-05-06 15:33 36.95518 30.80069 1010 ft 118 kts 186°
2026-05-06 15:33 36.94688 30.79938 846 ft 123 kts 185°
2026-05-06 15:33 36.93899 30.79822 739 ft 109 kts 182°
2026-05-06 15:33 36.93097 30.79714 571 ft 117 kts 184°
2026-05-06 15:34 36.92271 30.79588 353 ft 122 kts 185°
2026-05-06 15:34 36.91456 30.79467 200 ft 109 kts 185°
2026-05-06 15:34 36.90785 30.79368 184 ft 84 kts 184°
2026-05-06 15:34 36.90403 30.79323 179 ft 22 kts 169°
2026-05-06 15:35 36.90399 30.79408 180 ft 9 kts 40°
2026-05-06 15:35 36.90408 30.79418 180 ft 0 kts 40°
2026-05-06 15:35 36.90449 30.79460 180 ft 17 kts 37°
2026-05-06 15:36 36.90461 30.79532 180 ft 7 kts 148°
2026-05-06 15:36 36.90401 30.79534 180 ft 14 kts 183°
2026-05-06 15:36 36.90281 30.79519 179 ft 28 kts 186°
2026-05-06 15:36 36.90045 30.79487 178 ft 34 kts 187°
2026-05-06 15:37 36.89821 30.79454 178 ft 30 kts 188°
2026-05-06 15:37 36.89618 30.79430 178 ft 29 kts 186°
2026-05-06 15:37 36.89366 30.79398 177 ft 30 kts 183°
2026-05-06 15:37 36.89302 30.79505 177 ft 16 kts 98°
2026-05-06 15:38 36.89314 30.79548 177 ft 0 kts 33°
2026-05-06 15:38 36.89367 30.79598 177 ft 11 kts